Location: *
(50.3440°N, 18.6237°E)
Time: 13:41:35
(UTC+00:00)

USA 281 - Pass Details

Date: 30 November 2020
Orbit: 1074 x 1084 km, 106.0° (Epoch: 22 January)

Event Time Altitude Azimuth Distance (km) Brightness Sun altitude
Rises 16:24:21 0° 131° (SE) 3,874 5.8 -15.1°
Reaches altitude 10° 16:26:55 10° 126° (SE) 2,920 5.1 -15.5°
Maximum altitude 16:33:13 51° 53° (NE) 1,340 3.3 -16.4°
Drops below altitude 10° 16:39:30 10° 340° (NNW) 2,928 5.6 -17.4°
Sets 16:42:05 0° 336° (NNW) 3,886 6.3 -17.8°
